Date,TemperatureHighF,TemperatureAvgF,TemperatureLowF,DewpointHighF,DewpointAvgF,DewpointLowF,HumidityHigh,HumidityAvg,HumidityLow,PressureMaxIn,PressureMinIn,WindSpeedMaxMPH,WindSpeedAvgMPH,GustSpeedMaxMPH,PrecipitationSumIn
2013-10-1,61.4,46.7,30.8,43.0,34.5,25.0,85,64,46,29.94,29.82,14,3,0,0.00
2013-10-2,55.0,43.9,33.9,39.0,34.1,28.0,85,69,50,29.96,29.73,14,2,0,0.04
2013-10-3,43.3,35.7,30.4,35.0,30.0,27.0,91,80,62,30.05,29.71,15,6,0,0.20
2013-10-4,41.7,32.7,25.1,29.0,25.4,21.0,87,75,54,30.48,30.06,14,4,0,0.02
2013-10-5,49.0,32.6,16.5,30.0,23.8,15.0,95,73,45,30.59,30.48,7,1,0,0.00
2013-10-6,61.3,39.7,23.6,34.0,27.5,20.0,88,66,32,30.56,30.25,7,1,0,0.01
2013-10-7,65.4,45.5,25.5,40.0,28.7,20.0,82,57,30,30.25,29.82,17,4,0,0.00
2013-10-8,51.8,42.0,27.1,32.0,27.9,22.0,89,59,42,29.85,29.71,19,4,0,0.00
2013-10-9,59.0,38.1,22.5,38.0,29.2,18.0,88,73,38,29.89,29.81,13,2,0,0.00
2013-10-10,55.4,41.8,32.2,40.0,35.7,29.0,94,80,52,29.84,29.58,14,2,0,0.09
2013-10-11,47.1,38.6,30.5,36.0,29.0,23.0,89,70,47,30.05,29.74,7,2,0,0.00
2013-10-12,47.7,34.7,25.4,34.0,27.0,21.0,86,75,51,30.09,30.02,14,2,0,0.00
2013-10-13,41.6,37.5,33.0,33.0,32.1,29.0,89,81,71,30.02,29.93,10,2,0,0.11
2013-10-14,38.4,34.7,30.0,34.0,29.9,25.0,91,82,73,30.31,30.10,14,4,0,0.05
2013-10-15,45.5,31.3,20.4,28.0,23.1,17.0,89,74,44,30.41,30.29,7,1,0,0.01
2013-10-16,45.8,32.1,18.4,30.0,21.0,-99.9,95,70,44,30.33,30.20,11,-8,0,0.01
2013-10-17,43.4,33.9,26.1,30.0,25.3,22.0,92,72,47,30.26,30.12,13,2,0,0.00
2013-10-18,45.6,31.8,18.6,27.0,21.1,15.0,88,67,40,30.37,30.26,7,1,0,0.00
2013-10-19,52.9,38.5,20.8,32.0,25.6,18.0,92,62,39,30.33,30.06,14,3,0,0.00
2013-10-20,51.1,39.9,26.3,31.0,26.4,21.0,82,61,39,30.14,29.99,10,2,0,0.00
2013-10-21,54.8,36.9,23.5,34.0,26.2,19.0,86,68,43,30.30,30.14,5,1,0,0.00
2013-10-22,50.2,30.2,25.6,34.0,24.8,21.0,86,81,55,30.32,30.29,2,0,0,0.00
2013-10-26,61.2,47.1,30.9,35.0,27.1,-99.9,79,50,32,30.33,0.00,7,-15,0,0.00
2013-10-27,58.8,42.3,29.1,31.0,25.1,21.0,75,53,28,30.17,29.66,14,3,0,0.00
2013-10-28,50.5,42.7,32.4,35.0,31.1,23.0,91,65,39,29.73,29.46,24,7,0,0.26
2013-10-29,38.1,33.7,31.5,33.0,30.8,28.0,92,89,78,29.94,29.71,11,1,0,0.20
2013-10-30,33.2,31.8,31.9,31.0,26.3,-99.9,92,85,82,30.09,29.90,10,-17,0,0.03
2013-10-31,35.7,33.2,31.9,32.0,29.2,28.0,90,85,78,30.18,30.08,15,5,0,0.04